Wind_Speed
21 23 27 31 35 34 34 35 33 4 23 38 36 35 39 41 39 34 21 16 6 3 2 4 4 6 2 5 5 3 3 5 8 11 13 6 5 6 5 11 12 10 8 7 5 5 11 7 10 14 4 6 5 4
20 22 25 30 33 34 31 36 35 27 18 20 30 30 31 31 32 33 12 19 15 2 1 2 5 6 7 4 4 5 1 4 4 3 2 4 3 6 11 5 13 8 10 8 11 8 4 1 7 6 6 3 4 2
19 21 24 27 31 33 32 29 36 29 4 20 21 23 26 27 30 33 15 16 8 2 2 4 3 6 10 12 12 4 4 5 3 2 2 1 4 4 8 8 13 11 13 2 6 13 11 15 4 7 8 6 8 7
18 20 23 26 28 31 32 29 29 40 6 23 22 24 26 26 28 33 15 14 14 2 3 3 4 6 12 17 20 22 6 10 9 1 3 1 3 3 5 4 4 4 11 8 3 3 13 6 6 8 6 8 8 9
18 20 22 24 28 30 31 29 27 33 28 14 21 21 30 27 27 22 11 10 16 5 1 2 3 6 18 22 16 17 12 12 5 3 2 1 1 4 3 5 2 6 6 7 6 9 5 7 8 9 8 9 8 8
19 19 21 23 26 30 32 27 22 21 25 29 21 15 21 23 28 12 1 8 15 3 3 2 2 4 9 16 13 14 8 6 3 3 3 2 4 3 4 3 4 11 12 11 3 2 9 7 13 12 11 9 8 8
19 20 21 22 25 27 32 28 18 15 16 13 19 12 18 20 23 3 1 10 19 10 2 2 4 1 4 4 3 4 8 4 3 2 2 4 4 4 3 4 8 8 8 7 7 10 9 10 11 9 9 10 8 9
20 17 21 22 25 27 29 29 18 11 14 18 24 24 22 18 12 6 10 15 12 5 0 2 2 1 3 3 3 3 2 1 3 3 3 6 6 3 3 5 12 12 12 12 10 10 11 10 12 11 9 8 11 8
18 16 19 21 25 27 29 29 18 8 5 13 12 10 4 7 3 1 9 8 2 1 2 2 3 3 1 1 2 1 2 4 1 1 1 2 2 3 5 13 15 14 10 13 11 9 9 10 9 11 9 7 7 5
16 16 18 22 25 28 29 31 23 6 4 12 10 3 3 5 13 10 4 2 3 1 1 3 3 2 1 1 2 3 2 3 2 2 4 2 3 5 9 13 14 14 12 12 9 8 10 10 8 8 9 7 7 6
19 19 21 23 26 27 28 30 28 13 3 5 1 1 5 12 11 4 1 2 4 2 2 2 3 5 5 4 3 2 3 1 2 3 4 5 6 7 13 13 11 9 8 7 6 6 3 5 5 6 5 4 5 5
18 19 21 23 25 26 27 26 27 14 6 4 3 5 3 2 2 2 2 1 2 3 2 3 3 3 2 3 3 2 2 1 2 7 4 5 6 15 13 13 11 9 8 8 7 7 5 4 3 1 4 5 3 12
16 16 20 24 24 25 26 23 23 12 8 5 2 3 3 3 2 2 1 1 3 2 3 6 5 3 2 1 2 1 2 3 6 2 3 3 11 12 12 11 10 8 8 8 7 6 5 4 3 4 1 8 9 14
20 15 17 24 27 24 23 21 18 12 5 3 2 3 4 2 5 3 4 4 3 1 6 5 3 2 2 3 0 3 3 2 3 4 4 7 12 11 11 10 10 10 8 7 6 5 5 5 3 2 3 4 3 7
19 15 14 23 27 23 20 16 12 8 5 3 4 4 3 2 1 2 3 2 1 5 4 3 2 2 3 2 1 3 2 3 4 3 3 9 13 12 10 8 7 8 6 6 6 5 5 5 5 4 3 4 7 10
17 13 13 26 29 20 17 14 5 4 2 3 4 1 2 1 2 2 1 2 3 2 1 1 2 2 2 3 4 4 4 4 2 3 6 11 12 11 9 8 7 6 5 4 5 6 6 6 6 6 6 7 9 14
14 7 20 27 30 18 11 6 3 2 2 2 2 2 3 4 3 2 2 1 2 1 1 1 3 4 2 3 4 4 1 4 5 5 6 10 10 10 9 8 8 8 7 8 8 8 7 9 11 9 6 8 11 12
9 16 23 25 25 14 4 6 3 2 3 3 2 1 1 2 0 1 2 4 3 2 3 2 3 3 2 2 2 3 3 3 4 6 6 9 10 9 8 9 8 10 8 8 10 9 9 9 6 5 11 12 12 12
18 16 18 20 15 5 4 3 4 1 2 2 3 2 3 1 2 1 2 3 3 1 3 3 3 3 3 1 4 4 5 4 6 5 6 9 11 11 10 12 10 10 10 9 11 9 10 11 8 10 11 12 9 10
13 10 16 17 8 3 2 1 2 2 1 1 2 3 2 1 2 2 2 3 2 3 3 3 3 2 2 2 3 5 5 6 6 7 6 5 6 10 8 9 7 12 11 12 10 12 10 8 8 11 11 10 10 9
7 9 14 10 2 2 3 1 2 2 2 2 1 2 2 3 3 3 3 4 2 2 3 4 3 1 1 1 3 5 7 7 7 6 7 7 7 9 9 11 12 10 7 6 5 6 10 10 12 10 9 9 7 9
5 12 5 5 3 1 3 2 1 1 3 1 2 4 4 4 5 5 4 5 3 6 5 4 3 2 3 5 5 7 8 10 8 7 10 12 7 6 6 7 7 5 5 8 9 7 8 8 12 11 12 11 8 8
7 3 3 2 2 3 4 0 3 4 3 2 2 3 4 3 2 3 3 4 5 4 3 4 5 3 4 7 9 10 11 9 5 7 7 7 11 13 12 12 13 7 5 7 9 10 10 11 15 16 14 11 9 11
2 3 2 2 3 2 1 2 3 2 4 4 3 4 5 2 2 2 5 6 4 2 3 3 2 3 4 7 6 6 5 9 7 9 12 9 6 7 13 12 12 12 12 12 12 12 12 13 15 12 12 12 11 10
3 4 3 4 2 3 4 3 2 2 3 5 5 4 2 3 3 3 4 2 4 2 2 2 3 4 4 5 5 5 14 10 5 6 11 14 12 10 10 11 12 11 12 13 11 12 11 10 10 11 10 10 8 10
5 5 4 2 2 3 2 2 4 4 4 2 3 2 1 2 3 4 0 6 5 4 4 4 5 5 4 3 3 4 7 11 11 5 9 15 15 9 7 7 6 7 11 12 14 12 12 12 11 10 10 11 10 10
5 6 4 1 2 1 2 3 4 3 3 3 3 3 2 4 5 3 3 5 3 4 7 7 7 5 5 5 8 5 0 7 7 9 13 10 12 17 17 11 7 12 14 13 14 13 12 13 13 10 9 8 10 12
5 3 6 5 2 2 2 2 2 3 4 1 1 3 3 2 3 2 3 4 6 6 5 5 5 5 7 8 10 5 3 8 13 16 16 15 12 12 15 16 15 15 16 15 12 11 11 11 11 9 7 5 6 11
4 4 4 3 1 3 3 4 3 1 2 2 2 3 3 3 2 1 2 1 3 6 6 4 4 6 7 8 8 8 8 11 6 9 11 7 4 4 10 13 16 16 18 15 12 12 12 11 10 8 6 4 4 5
4 5 3 4 4 5 3 2 3 3 3 4 4 7 9 7 8 9 8 9 8 6 8 8 9 8 6 5 5 6 9 14 12 5 6 7 9 17 20 17 17 17 16 15 14 11 9 8 6 5 7 7 8 8
4 3 3 4 3 2 1 4 5 6 7 7 7 8 10 8 10 14 14 14 11 9 10 8 9 11 10 8 6 5 5 11 15 12 10 9 15 23 24 23 21 18 17 15 14 12 11 10 10 9 9 9 9 8
3 3 3 2 1 2 4 3 4 5 6 7 7 6 7 7 9 8 3 2 6 5 8 9 9 10 8 9 11 13 13 10 13 14 10 14 19 21 23 23 21 19 16 14 14 13 12 11 10 10 8 8 6 6
3 2 2 1 1 1 2 3 3 3 3 4 4 3 4 4 4 2 3 2 3 6 7 7 7 6 7 10 12 10 6 10 9 9 13 17 18 19 19 20 20 19 18 16 16 16 15 13 10 9 8 7 7 9
Wind_Direction
3 7 11 11 13 13 14 12 9 8 187 191 193 196 195 193 194 192 202 188 129 219 248 274 209 224 328 263 189 191 141 183 192 194 195 173 167 181 171 186 175 166 162 187 173 171 255 186 183 198 158 89 92 77
8 10 15 15 17 15 16 19 16 20 200 193 189 193 192 195 196 192 203 210 211 183 32 305 233 201 192 179 313 180 168 154 171 152 220 116 185 157 167 194 187 189 198 158 191 206 270 304 190 150 106 113 125 113
12 12 14 17 19 20 18 16 21 12 190 187 187 183 189 194 199 191 195 182 128 100 244 249 238 212 274 248 208 269 169 150 161 297 51 132 138 186 180 200 174 203 203 193 143 214 213 228 202 111 138 156 141 125
14 15 12 15 17 20 22 17 17 13 133 184 187 188 190 192 197 189 194 176 187 153 224 167 299 259 290 298 283 256 202 147 127 85 81 148 124 2 179 161 141 142 158 181 187 267 172 176 136 132 143 118 122 119
12 14 17 13 14 14 17 20 19 21 51 171 184 184 189 190 190 177 167 165 190 203 236 144 168 345 331 355 269 237 149 135 136 100 66 87 305 61 13 1 126 159 169 178 209 209 160 160 139 134 138 147 142 134
10 9 11 14 12 16 15 18 21 37 34 48 78 172 172 183 160 140 59 218 207 170 143 159 320 338 337 323 43 50 32 52 83 109 116 122 167 169 141 182 254 172 169 188 161 331 141 141 138 146 166 166 149 165
3 5 9 11 13 11 17 15 26 37 54 40 33 51 101 137 161 134 208 158 172 163 132 166 168 10 319 324 3 43 25 54 68 94 120 139 155 177 173 169 171 170 144 133 140 136 125 151 149 157 173 158 146 162
4 9 8 10 14 14 14 19 18 44 87 101 78 74 93 92 96 67 94 122 102 92 181 171 109 197 329 360 44 41 111 155 32 119 188 139 133 152 190 207 137 133 142 131 131 134 136 144 149 169 182 163 165 181
8 15 5 9 9 11 11 13 22 19 106 135 126 86 52 41 45 96 139 103 79 264 150 213 145 117 228 108 128 119 90 54 46 80 89 106 135 201 205 173 148 146 146 145 147 144 144 151 180 171 180 184 187 197
19 13 12 7 6 6 7 9 11 23 174 165 167 201 138 160 158 164 185 215 169 213 22 33 162 109 135 202 114 120 85 109 103 57 125 139 172 179 180 135 144 152 170 163 154 166 164 179 189 194 193 200 200 203
21 15 9 2 1 1 2 5 11 10 130 209 154 19 104 156 174 210 191 208 142 116 96 39 74 109 352 90 96 60 111 210 116 151 153 173 159 171 140 131 113 114 123 152 156 135 117 150 176 185 197 219 186 196
4 6 2 359 356 356 358 359 6 21 13 339 300 268 265 276 341 62 12 290 34 95 118 124 98 66 52 29 70 29 89 218 130 161 173 178 157 163 140 131 133 138 150 144 136 131 114 109 109 205 266 198 140 107
346 352 359 357 355 353 354 354 357 352 315 232 249 22 9 337 6 299 161 85 48 65 130 141 128 136 155 115 54 62 117 73 148 174 208 175 148 141 144 145 144 151 150 139 128 120 117 124 109 10 102 63 87 97
348 339 353 351 351 350 349 350 357 351 313 360 33 35 1 39 44 2 356 15 24 125 132 129 103 85 92 62 243 94 69 168 205 195 199 131 133 139 145 148 155 161 145 142 140 126 106 107 89 25 54 73 104 114
345 339 344 343 347 346 344 345 350 343 359 12 20 16 67 112 73 303 280 216 2 124 131 139 95 91 92 84 96 105 171 209 231 199 114 138 138 141 133 154 115 101 87 101 109 117 127 139 144 134 158 165 166 155
337 345 349 345 345 343 342 339 346 33 3 46 33 126 109 146 120 142 277 123 110 105 118 234 123 128 192 148 175 201 195 208 173 72 106 119 125 127 126 115 113 121 130 143 126 136 143 148 144 136 132 139 156 152
337 1 338 338 343 343 344 337 353 36 41 42 52 23 320 55 42 37 306 44 128 191 206 276 160 190 190 213 202 200 229 77 102 100 106 126 131 121 123 130 138 147 157 166 155 146 136 140 138 136 131 134 137 150
328 325 326 340 347 337 8 7 334 358 81 66 134 136 87 94 264 315 349 7 339 350 332 351 311 226 205 217 237 96 104 78 96 127 129 118 116 123 137 152 161 161 156 166 158 152 155 165 174 140 138 140 134 140
317 312 320 340 341 301 346 358 336 35 74 127 153 163 99 222 243 294 337 311 303 327 313 295 264 249 258 22 103 110 129 146 135 118 111 125 139 150 159 159 162 157 161 163 163 176 178 183 165 160 154 167 156 159
326 317 325 325 321 284 323 338 295 287 200 97 195 218 163 179 332 5 287 267 302 287 234 228 266 33 6 38 133 155 152 133 132 126 125 129 131 145 148 157 162 157 164 176 180 150 152 150 158 161 171 157 141 152
335 326 333 344 298 293 291 276 231 4 358 280 59 250 216 163 229 219 236 227 200 239 246 262 322 89 87 136 127 123 136 152 163 159 156 155 161 164 159 161 159 163 163 166 170 166 177 176 178 162 151 130 138 160
315 330 309 329 272 222 269 233 350 78 260 316 255 234 236 210 219 225 208 205 240 237 249 279 287 209 180 172 162 138 163 166 147 132 142 144 160 162 167 168 166 168 165 173 174 166 185 171 154 156 149 152 169 165
325 313 269 281 270 243 266 285 239 182 226 244 214 236 228 223 218 179 227 214 227 236 241 239 235 226 204 168 145 140 166 164 150 157 152 158 166 172 168 170 177 171 172 184 179 170 183 171 170 160 159 171 179 172
339 256 254 244 217 266 278 247 227 237 203 212 243 240 252 203 121 251 255 245 228 187 188 220 249 231 181 178 161 158 164 180 168 161 174 163 169 169 167 168 174 180 174 171 176 188 153 153 157 160 164 167 184 185
242 194 233 215 208 212 211 240 263 265 224 223 259 272 218 148 206 226 249 247 143 86 78 334 282 263 209 209 199 162 167 187 184 171 175 168 168 163 164 161 158 161 153 137 132 139 147 159 173 163 175 187 194 193
236 173 213 215 201 214 236 213 203 232 260 261 259 284 318 239 234 235 97 36 71 51 38 19 359 337 309 292 194 162 170 200 200 185 180 179 176 164 155 154 157 158 176 175 160 166 166 179 182 185 195 197 199 201
227 190 191 183 287 229 263 263 276 268 265 248 242 251 227 231 232 84 92 29 50 25 17 11 351 339 342 347 1 39 54 207 211 195 167 163 171 166 168 172 185 197 189 179 176 175 183 184 183 191 206 207 208 207
230 188 174 178 192 218 223 272 259 250 244 4 250 221 242 319 53 56 56 42 25 3 348 339 318 303 310 314 323 318 51 107 124 128 125 119 130 150 174 183 195 194 191 198 180 175 172 171 173 174 175 196 213 198
187 162 122 126 176 203 220 207 238 289 48 327 282 287 350 50 81 36 332 271 319 325 321 329 355 357 326 305 284 264 234 182 173 177 172 172 161 192 163 173 164 170 179 174 174 177 179 180 182 177 176 199 208 202
138 158 147 140 176 205 219 250 326 23 326 320 319 298 291 286 296 311 304 289 282 282 293 299 296 288 284 296 304 253 233 217 221 237 210 199 187 175 189 189 188 185 184 173 173 174 185 192 195 196 203 220 228 228
122 171 148 165 195 213 270 358 330 302 278 269 266 266 275 289 291 284 273 268 259 259 276 275 270 265 267 261 253 271 269 234 235 240 251 240 191 172 173 181 188 190 186 185 186 187 179 182 195 199 201 216 226 214
161 163 135 138 217 65 349 292 289 269 272 272 271 270 269 268 277 286 301 210 214 241 265 278 281 276 288 339 305 252 260 280 220 223 208 185 174 170 174 182 184 184 183 183 189 193 201 194 190 199 197 189 186 207
101 120 84 81 216 252 92 332 281 287 300 295 282 281 290 290 278 41 35 28 305 320 325 332 332 319 308 314 309 320 184 173 185 210 221 202 186 182 181 183 183 185 189 191 185 191 192 193 208 192 185 175 199 221
Height
641 635 629 621 613 606 597 587 577 571 573 579 585 593 600 607 615 623 630 634 639 639 635 638 640 643 645 639 638 637 637 640 645 645 643 654 661 666 667 664 666 674 691 694 701 704 702 662 666 678 674 676 677 680
643 637 632 625 618 610 601 592 583 578 579 582 587 593 601 608 616 624 629 633 638 645 647 647 645 645 645 647 652 632 624 639 639 636 638 644 651 645 653 665 649 664 656 670 675 678 662 659 661 664 669 675 680 681
645 640 634 629 623 616 607 598 591 584 580 583 588 595 602 609 616 622 628 633 638 643 644 643 638 640 643 645 647 638 628 632 636 634 634 636 636 637 643 643 644 647 649 662 667 659 657 659 663 665 672 675 679 683
648 643 637 632 626 619 612 604 596 587 579 585 591 597 603 609 614 622 628 629 635 641 637 638 639 640 640 636 629 625 613 620 628 633 639 639 635 637 633 632 642 646 647 656 663 656 652 660 663 668 673 674 679 685
650 645 641 635 629 622 616 609 602 595 587 589 594 598 604 609 616 623 625 628 632 635 629 632 636 636 627 619 617 611 610 615 624 638 645 644 642 637 644 642 639 639 650 654 660 654 655 663 666 671 679 683 686 690
652 648 643 638 632 626 619 614 609 605 602 598 599 602 605 611 614 621 631 630 629 629 633 628 636 637 634 630 612 611 614 618 625 636 642 640 643 646 651 657 637 632 633 641 648 651 655 663 666 675 683 685 689 694
654 650 646 641 636 629 624 617 614 612 611 609 607 607 607 610 617 621 621 621 628 630 633 633 632 635 634 631 628 627 627 633 636 638 639 636 640 640 639 640 630 633 639 645 651 654 663 665 671 676 681 688 693 697
655 652 648 644 639 634 628 623 617 616 616 615 615 615 616 616 620 623 624 624 626 628 630 627 630 631 633 627 628 632 642 644 640 644 638 634 639 642 641 628 632 640 647 651 656 660 666 669 676 684 687 688 694 699
655 653 650 646 641 636 631 625 621 618 619 619 619 618 619 621 624 627 627 627 626 629 623 620 615 625 634 632 634 636 634 638 641 643 640 633 644 642 631 627 637 646 652 658 663 666 667 672 680 684 687 689 694 699
658 655 651 648 643 638 632 627 620 618 618 620 621 621 617 623 625 627 630 625 625 626 623 620 620 625 627 627 629 631 627 634 642 642 640 640 640 632 627 631 640 650 656 661 667 670 673 679 682 683 685 689 692 697
661 657 653 649 644 639 634 629 622 617 617 618 614 616 618 620 623 618 613 612 613 622 622 628 623 625 632 628 627 623 634 629 634 643 641 641 641 636 632 639 649 657 662 665 669 674 676 678 680 684 687 690 692 696
665 660 656 651 646 641 636 631 627 623 623 622 620 617 613 611 609 611 609 606 604 617 624 626 631 633 634 632 632 633 631 630 637 636 636 635 629 634 642 653 661 667 670 674 677 681 686 685 687 690 691 691 694 698
665 662 658 653 647 642 637 632 628 625 622 619 618 616 615 616 617 611 618 608 613 614 619 623 630 633 633 629 633 629 635 640 633 639 632 621 627 637 648 658 666 671 675 678 681 684 686 689 691 693 694 698 700 703
664 661 658 654 648 643 637 633 629 624 622 620 618 628 622 624 630 633 630 626 623 618 619 622 626 628 629 637 635 638 639 634 636 636 625 630 637 645 653 661 668 672 676 680 683 686 690 693 696 698 700 701 704 706
663 660 657 654 648 643 638 634 630 628 624 625 625 630 634 643 644 641 637 631 628 624 626 627 627 626 632 641 633 642 647 640 631 622 625 629 641 650 658 663 670 678 681 685 688 691 693 696 699 701 703 704 705 707
663 659 658 653 648 642 638 633 630 630 629 632 634 634 635 635 639 640 637 631 630 631 631 628 628 633 633 632 634 636 632 628 621 627 630 639 649 655 663 670 676 681 685 688 691 693 696 698 700 702 703 704 705 708
662 661 657 652 646 640 637 635 631 630 630 630 645 646 641 638 640 640 635 631 631 631 633 627 629 628 624 626 624 619 621 628 637 639 643 649 655 661 670 676 680 683 686 689 691 694 697 699 700 702 704 706 707 710
663 661 657 652 646 640 637 636 633 629 633 634 637 645 639 641 645 640 637 635 634 633 631 631 627 628 630 628 619 630 639 642 643 646 651 655 660 667 672 677 681 682 685 688 691 695 697 698 699 700 704 707 709 712
665 661 657 653 651 648 641 639 638 634 636 636 637 637 640 643 639 639 638 638 637 637 638 633 630 625 624 625 632 637 641 644 645 652 655 658 663 669 673 677 680 681 685 687 690 693 695 696 697 700 703 705 708 710
662 659 657 653 651 645 643 640 640 635 632 636 636 636 635 639 640 641 642 641 638 637 636 632 627 627 629 630 631 634 639 644 648 653 659 662 665 669 672 675 678 681 684 687 688 691 693 695 696 699 702 703 705 709
661 659 655 653 648 647 642 639 636 636 636 636 633 635 634 638 642 642 642 638 641 639 630 626 625 630 631 632 633 635 639 643 647 651 655 661 665 667 671 674 677 680 682 685 688 689 691 693 696 699 700 703 706 708
662 660 658 655 650 648 645 638 639 644 641 633 636 635 632 637 638 637 635 637 635 630 628 629 630 630 633 634 635 637 641 643 647 650 653 658 663 667 669 672 675 678 680 682 683 686 689 691 694 697 700 704 706 707
661 660 658 656 654 649 646 640 639 636 638 636 631 630 627 628 627 628 630 627 626 625 627 628 628 629 631 633 635 639 641 643 646 649 653 656 661 664 666 669 672 674 677 679 681 684 687 690 693 697 700 702 704 706
660 659 656 651 650 647 645 642 636 634 631 635 631 628 622 624 631 630 625 618 620 623 626 629 629 630 631 633 635 639 642 643 645 649 651 654 657 660 663 666 669 672 674 677 681 684 686 690 693 696 697 699 702 704
661 656 656 647 646 647 644 638 634 630 632 629 626 624 620 625 629 628 622 615 623 628 632 634 633 630 631 632 633 636 640 642 644 646 649 652 655 658 661 665 668 671 674 677 681 684 687 689 691 693 695 697 699 701
654 648 650 640 641 641 635 636 636 634 628 630 628 621 623 624 627 621 616 631 633 639 641 641 640 637 633 632 633 635 638 640 642 644 646 648 651 655 659 663 667 671 673 676 679 683 685 688 690 692 694 695 696 698
644 640 642 643 642 642 641 637 634 635 636 631 625 624 626 628 620 626 640 645 645 647 647 647 646 645 643 642 640 639 638 639 640 641 644 647 650 653 656 661 665 669 671 674 676 678 681 683 686 689 690 692 693 694
637 634 644 643 644 642 645 642 640 637 630 632 632 631 626 622 632 643 646 648 648 648 648 648 647 647 647 645 644 643 642 641 641 642 644 647 651 654 656 660 663 666 668 671 674 676 678 680 683 685 687 689 690 691
637 638 642 654 653 647 647 645 642 633 640 639 638 634 630 640 644 646 647 648 649 649 647 646 646 646 646 645 644 643 643 643 643 643 644 647 652 655 656 658 661 663 665 668 672 674 676 678 681 683 685 687 688 689
636 639 641 651 654 650 644 641 641 645 645 645 646 644 643 641 643 644 644 644 645 645 645 646 646 646 644 644 643 642 642 642 642 642 641 641 644 648 653 657 660 662 665 668 670 673 675 677 679 681 683 685 686 687
641 642 641 643 645 644 644 647 648 648 648 648 648 648 646 643 642 641 640 640 640 642 643 642 643 642 642 640 640 640 639 639 640 641 641 641 641 644 646 652 656 659 662 665 668 670 673 675 677 679 680 682 683 684
642 641 644 647 645 645 648 648 646 644 641 640 639 638 638 639 637 635 634 635 636 638 639 640 641 640 640 638 637 636 636 636 636 637 639 639 640 641 644 648 652 656 659 662 665 668 670 672 674 675 677 679 681 683
646 648 647 648 649 646 646 649 646 641 639 638 636 635 635 637 636 634 638 638 639 639 639 639 639 639 639 639 638 635 633 632 633 635 637 638 638 640 643 646 649 653 656 659 661 664 666 669 671 673 675 677 679 681